This is the latest recevied weather packets stored in our database for station/object WC4PEM-10. If no packets are shown the sender has not sent any weather packets the latest 10 day(s).
| Time | Temp. | Humidity | Pressure | Rain* | Wind** | Luminosity | Snow |
|---|---|---|---|---|---|---|---|
| 1777461217 | 15.56° C | 98% | 1016.1 hPa | 0 mm | - | - | - |
| 1777461107 | 15.56° C | 98% | 1016.1 hPa | 0 mm | - | - | - |
| 1777461027 | 15.56° C | 97% | 1016.2 hPa | 0 mm | - | - | - |
| 1777460807 | 15.56° C | 97% | 1016.2 hPa | 0 mm | - | - | - |
| 1777460674 | 15.56° C | 96% | 1016.1 hPa | 0 mm | - | - | - |
| 1777460507 | 15.56° C | 96% | 1016.1 hPa | 0 mm | - | - | - |
| 1777460207 | 16.11° C | 96% | 1016 hPa | 0 mm | - | - | - |
| 1777459907 | 16.67° C | 96% | 1015.8 hPa | 0 mm | - | - | - |
| 1777459884 | 17.22° C | 97% | 1015.6 hPa | 0 mm | - | - | - |
| 1777459607 | 17.22° C | 97% | 1015.6 hPa | 0 mm | - | - | - |
| 1777459531 | 17.22° C | 98% | 1015.6 hPa | 0 mm | - | - | - |
| 1777459418 | 17.22° C | 98% | 1015.5 hPa | 0 mm | - | - | - |
| 1777459307 | 17.22° C | 98% | 1015.6 hPa | 0 mm | - | - | - |
| 1777459100 | 17.22° C | 98% | 1015.5 hPa | 0 mm | - | - | - |
| 1777459007 | 17.22° C | 98% | 1015.5 hPa | 0 mm | - | - | - |
| 1777458990 | 16.67° C | 98% | 1015.5 hPa | 0 mm | - | - | - |
| 1777458707 | 16.67° C | 98% | 1015.5 hPa | 0 mm | - | - | - |
| 1777458407 | 16.67° C | 98% | 1015.4 hPa | 0 mm | - | - | - |
| 1777458107 | 16.67° C | 97% | 1015.6 hPa | 0 mm | - | - | - |
| 1777457807 | 16.67° C | 98% | 1015.7 hPa | 0 mm | - | - | - |
| 1777457507 | 16.11° C | 98% | 1015.5 hPa | 0 mm | - | - | - |
| 1777457207 | 16.11° C | 97% | 1015.5 hPa | 0 mm | - | - | - |
| 1777456907 | 16.11° C | 97% | 1015.7 hPa | 0 mm | - | - | - |
| 1777456709 | 16.11° C | 97% | 1015.8 hPa | 0 mm | - | - | - |
| 1777456607 | 16.11° C | 97% | 1015.8 hPa | 0 mm | - | - | - |
* Rain latest hour (hover to see other rain measurements)
** Current wind speed in m/s (hover to see current wind gust speed)